DELTA 1 DEB, 25270

Orbit data source: Space-Track

DELTA 1 DEB, 25270 is space debris in LEO originally from a launch on Thu, 04 Jul 1968 UTC launched from the Air Force Western Test Range (AFWTR). Debris objects in space refer to the collection of defunct objects orbiting the Earth. Examples of debris include non-operational satellites, rocket bodies, and fragments generated from explosions, collisions, or faulty payload assembly.

Loading next visibility...
Identifier
25270, 1968-055E
Orbit
LEO
Country
Flag of USUS
Related business
Manufacturer
Unknown
Mission
Spacecraft
Bus & Motor
Unknown
Mass
Unknown
Launch date (UTC)
1968-07-04 (58 years ago)
Launch vehicle
Unknown
Launch site
Air Force Western Test Range (AFWTR)
Object type
Payload
Rocket body
Debris
Shape & HBR
Unknown shape, 0.1 m
Radar Cross Section
Small (<0.1 m²)

Expand to show TLE details & history
Last TLE update: 4 months ago

TLE from 4 months ago
0 DELTA 1 DEB
1 25270U 68055E   26011.04560260  .00003097  00000-0  56067-2 0  9998
2 25270 120.5578 127.5652 2225529 245.7368  89.5837 10.04045128429129
Epoch: 2026-01-11T01:05Z
TLE epoch observation values (Epoch: 2026-01-11T01:05:40.064Z)
Latitude
-0.00009°
Longitude
0.58604°
Altitude
3,121.05 km
Speed
6.327 km/s
True Right ascension
08h 30m 15s
True Declination
0° 00' 00"
Sunlit
Object was in full shadow at epoch
Visualization orbit readout
Latitude
Unknown
Longitude
Unknown
Altitude
Unknown
Speed
Unknown
Apparent Right ascension
Unknown
Apparent Declination
Unknown
Sunlit
N/A
Visualization observer readout
Local Sidereal Time
08:47:22
Azimuth
Unknown
Elevation
Unknown
Doppler factor
Unknown
Orbital elements
Apogee altitude
4,717.174 km
Perigee altitude
677.605 km
Semi-major axis
9,075.526 km
Eccentricity
0.22255
Inclination
120.5578°
RAAN
127.5652°
Arg. of periapsis
245.7368°
True anomaly
114.34474°
Mean anomaly
89.5837°
Eccentric anomaly
102.0539°
Mean motion
2.51036 °/min
Orbital period
143.41 mins
BSTAR
0.0056067
Loading maneuver chart data...
Computing Atmospheric mass density...
Loading historical data...
Loading historical data...
Loading historical data...
Loading historical data...
Loading historical data...
Loading historical data...
Loading historical data...

Documentation

Showing up to 5 results
|